Miscellaneous Local Product
Issued by NWS Hastings, NE

Home | Current Version | Previous Version | Graphics & Text | Print | Product List | Glossary On
Versions: 1 2 3 4 5 6 7 8 9 10 11 12 13 14 15 16 17 18 19 20 21 22 23 24 25 26 27 28 29 30 31 32 33 34 35 36 37 38 39 40 41 42 43 44 45 46 47 48 49 50
747
AXUS43 KGID 040402
MISGRI

GID CWA HOURLY WEATHER ROUNDUP
NATIONAL WEATHER SERVICE HASTINGS NE
1000 PM CST SAT DEC 03 2016

NOTE: "FAIR" INDICATES FEW OR NO CLOUDS BELOW 12,000 FEET WITH NO
SIGNIFICANT WEATHER AND/OR OBSTRUCTIONS TO VISIBILITY.

...SOUTH CENTRAL NEBRASKA...

CITY           SKY/WX    TMP DP  RH WIND       PRES   REMARKS
GRAND ISLAND   CLOUDY    32  32 100 SW10      30.05S WCI  24
HASTINGS       CLOUDY    32  31  96 S7        30.05S WCI  26
KEARNEY        CLOUDY    32  28  86 SW7       30.03F WCI  26
ORD            CLOUDY    33  29  85 S8        30.01F WCI  26
YORK           CLOUDY    32  32 100 CALM      30.06R FOG
AURORA         CLOUDY    32  32 100 S3        30.05S
LEXINGTON      CLOUDY    33  31  94 SW8       30.02S WCI  26
HOLDREGE       CLOUDY    32  31  96 S6        30.02F FOG     WCI  26
HEBRON         LGT SNOW  32  32 100 CALM      30.07S

...NEBRASKA PANHANDLE...

CITY           SKY/WX    TMP DP  RH WIND       PRES   REMARKS
CHADRON        CLOUDY    27  17  66 W5        29.97S WCI  22
ALLIANCE       PTCLDY    27  15  61 W12       29.98R WCI  17
SCOTTSBLUFF    MOCLDY    26  13  57 NW7       30.01R WCI  18
SIDNEY         PTCLDY    28  15  58 W14       30.02R WCI  17

...WESTERN AND NORTH CENTRAL NEBRASKA...

CITY           SKY/WX    TMP DP  RH WIND       PRES   REMARKS
VALENTINE      CLEAR     25  18  74 W3        29.94S
AINSWORTH      CLEAR     28  18  68 W7        29.94F WCI  20
ONEILL         PTCLDY    33  32  95 S10       29.97F WCI  25
BROKEN BOW     CLOUDY    34  32  92 S9        29.99F WCI  27
IMPERIAL       PTCLDY    29  15  56 NW9       30.01S WCI  20
NORTH PLATTE   PTCLDY    31  28  89 S5        30.00S WCI  26
MCCOOK         CLOUDY    34  32  92 SW6       30.03R WCI  29

...EASTERN NEBRASKA...

CITY           SKY/WX    TMP DP  RH WIND       PRES   REMARKS
NORFOLK        CLOUDY    33  30  88 S8        30.03F WCI  26
SO SIOUX CITY  CLOUDY    35  33  92 S10       30.07F WCI  27
TEKAMAH        LGT SNOW  32  32 100 CALM      30.09F FOG
COLUMBUS       CLOUDY    32  30  93 SE6       30.06S WCI  26
ALBION         CLOUDY    32  32  99 S9        30.03S FOG     WCI  24
OMAHA EPPLEY   LGT SNOW  33  29  85 CALM      30.09F VSB 1
MILLARD        LGT SNOW  33  32  96 CALM      30.08F
LINCOLN        LGT SNOW  33  32  96 CALM      30.08F FOG
NEBRASKA CITY  LGT RAIN  36  36 100 S6        30.07S WCI  31
BEATRICE       LGT RAIN  34  34  99 SW6       30.07S WCI  29
FALLS CITY     LGT RAIN  38  36  92 SE9       30.09S WCI  31

...NORTHERN KANSAS...

CITY           SKY/WX    TMP DP  RH WIND       PRES   REMARKS
GOODLAND       CLEAR     26  24  92 W9        30.02R WCI  17
HILL CITY      FOG       32  32 100 S3        30.05S VSB 3/4
NORTON         CLOUDY    34  30  86 S3        30.03S FOG
PHILLIPSBURG   CLOUDY    32  32 100 SW3       30.07R
SMITH CENTER   FOG       30  30 100 CALM      30.07S VSB 1/4
BELOIT         CLOUDY    32  30  93 CALM      30.07S
HAYS           LGT RAIN  33  32  96 CALM      30.06S FOG
RUSSELL        LGT RAIN  34  34 100 CALM      30.04F FOG
CONCORDIA      LGT RAIN  37  37 100 SW5       30.07S WCI  33
SALINA         LGT RAIN  41  40  96 S8        30.08F FOG
TOPEKA         LGT RAIN  41  38  89 CALM      30.11S



USA.gov is the U.S. government's official web portal to all federal, state and local government web resources and services.